Regional Weather Roundup
Issued by NWS

Home | Current Version | Previous Version | Graphics & Text | Print | Product List | Glossary On
Versions: 1 2 3 4 5 6 7 8 9 10 11 12 13 14 15 16 17 18 19 20 21 22 23 24 25 26 27 28 29 30 31 32 33 34 35 36 37 38 39 40 41 42 43 44 45 46 47 48 49 50
452
ASUS43 KIND 201309
RWRIN

WEATHER ROUNDUP FOR INDIANA
NATIONAL WEATHER SERVICE INDIANAPOLIS IN
900 AM EDT SUN MAY 20 2018

NOTE: "FAIR" INDICATES FEW OR NO CLOUDS BELOW 12,000 FEET WITH NO
SIGNIFICANT WEATHER AND/OR OBSTRUCTIONS TO VISIBILITY.

* - STATION DOES NOT REPORT WEATHER SUCH AS PRECIPITATION OR FOG.

+ - STATION NOT QUALITY CONTROLLED BY THE NATIONAL WEATHER SERVICE.
    USE DATA WITH CAUTION...ESPECIALLY DEWPOINT AND RELATIVE
    HUMIDITY OBSERVATIONS.

INZ001>003-010>013-019-020-201400-
NORTHWEST INDIANA

CITY           SKY/WX    TMP DP  RH WIND       PRES   REMARKS
GARY /AIRPORT/ FOG       46  46 100 N10       30.15R VSB 1
KNOX *+        CLOUDY    54  54 100 E5        30.10F
LA PORTE +     CLOUDY    53  52  98 NE3       30.12F FOG
MICHIGAN CITY+ CLOUDY    52  52 100 N3        30.13S FOG
MONTICELLO +   CLOUDY    58  57  96 E8        30.09F FOG
RENSSELAER +   CLOUDY    55  52  88 NE9       30.11S FOG
VALPARAISO     FOG       51  50  96 N7        30.12F VSB 1/2

$$

LMZ046-743>745-201400-
SOUTHERN LAKE MICHIGAN

STATION/POSITION TIME  TEMP    WIND        PRES    WAVE
                       AIR SEA DIR/SP/G            HT
                 (UTC) (F)     (DEG/KT/KT) (MB)    (FT)
BURNS HARBOR     1240   46     360/  7/  9 1021.0R
5NW MICH CITY    1300   45 53   10/ 12/ 16   N/A     3

$$

INZ004-005-014>016-021>024-201400-
NORTH CENTRAL INDIANA

CITY           SKY/WX    TMP DP  RH WIND       PRES   REMARKS
ELKHART        CLOUDY    57  54  88 E5        30.12R
GOSHEN         CLOUDY    58  55  90 SE6       30.12R
LOGANSPORT +   CLOUDY    55  55 100 NE6       30.12S FOG
PERU/GRISSOM   CLOUDY    58  58 100 E9        30.10F
ROCHESTER +    CLOUDY    59  57  94 E6        30.11F
SOUTH BEND     CLOUDY    55  53  93 SE5       30.12F
WARSAW +       CLOUDY    57  55  94 E5        30.12F

$$

INZ006>009-017-018-025>027-201400-
NORTHEAST INDIANA

CITY           SKY/WX    TMP DP  RH WIND       PRES   REMARKS
ANGOLA *+      CLOUDY    59  54  82 CALM      30.12R
AUBURN +       CLOUDY    59  55  88 CALM      30.13R
FORT WAYNE     CLOUDY    60  56  86 E6        30.14R
HUNTINGTON +   CLOUDY    59  56  91 E3        30.13R

$$

INZ028-029-035-036-043>045-051>053-201400-
WEST CENTRAL INDIANA

CITY           SKY/WX    TMP DP  RH WIND       PRES   REMARKS
CRAWFORDSVL +  CLOUDY    64  64 100 E5        30.09R FOG
GREENCASTLE +  FAIR      66  64  94 S3        30.09S FOG
LAFAYETTE      FAIR      64  60  87 NE7       30.09S
TERRE HAUTE    FAIR      71  63  75 SW8       30.08R

$$

INZ030>032-037>040-046>048-054>057-064-065-201400-
CENTRAL INDIANA

CITY           SKY/WX    TMP DP  RH WIND       PRES   REMARKS
ANDERSON       FAIR      64  59  84 NE5       30.11R
COLUMBUS       MOSUNNY   68  63  83 CALM      30.09R
FISHERS *+     PTSUNNY   66  63  88 E3        30.10R
FRANKFORT +    PTSUNNY   67  61  81 E9        30.10F
GREENWOOD *+   FAIR      66  62  89 E3        30.09F
INDIANAPOLIS   PTSUNNY   68  62  81 E6        30.08S HAZE
-EAGLE CREEK   FAIR      68  61  78 E5        30.08S
KOKOMO +       CLOUDY    60  57  89 E8        30.11S
MARION +       CLOUDY    58  56  94 NE8       30.13R FOG
MT COMFORT *+  FAIR      64  64 100 NE3       30.10S
SHELBYVILLE    CLOUDY    68  63  84 E8        30.08S HAZE
ZIONSVILLE +   PTSUNNY   63  61  91 E7        30.10F FOG

$$

INZ033-034-041-042-049-050-058-059-201400-
EAST CENTRAL INDIANA

CITY           SKY/WX    TMP DP  RH WIND       PRES   REMARKS
MUNCIE         PTSUNNY   64  58  80 NE8       30.12R
RICHMOND +     PTSUNNY   63  63 100 NE7       30.11S FOG

$$

INZ060-061-067>069-081>083-085>088-201400-
SOUTHWEST INDIANA

CITY           SKY/WX    TMP DP  RH WIND       PRES   REMARKS
EVANSVILLE     FAIR      71  66  84 W5        30.09R
HUNTINGBURG +  FAIR      71  65  81 S5        30.10S
WASHINGTON +   FAIR      72  61  67 SW3       30.09R

$$

INZ062-063-066-070>080-084-089>092-201400-
SOUTH CENTRAL AND SOUTHEAST INDIANA

CITY           SKY/WX    TMP DP  RH WIND       PRES   REMARKS
BATESVILLE +   MOSUNNY   68  68 100 CALM      30.10R
BEDFORD +      FAIR      70  63  78 SW5       30.09R
BLOOMINGTON    FAIR      70  65  84 SW6       30.09R
FRENCH LICK *+ FAIR      68  64  88 SW6       30.10S
MADISON *+     FAIR      70  66  88 SW6       30.10R
NORTH VERNON + FAIR      68  64  88 W7        30.09R
SEYMOUR +      FAIR      73  64  73 W7        30.08R

$$





USA.gov is the U.S. government's official web portal to all federal, state and local government web resources and services.